Página principal
METAR-TAF:

METAR-TAF

Aeroportos :

Tan-Tan, Marrocos

latitude: 28-26-54N, longitude: 11-09-41W, altura: 199 m

Observação actual do tempo

O boletim foi feito há 5 horas e 57 minutos, às 18:00 UTC
Vento 18 kt de norte
Temperatura 16°C
Humidade 72%
Pressão 1013 hPa
Visibilidade 10 km ou mais
Poucas nuvensa uma altura de 1600 ft

METAR: GMAT 151800Z 36018KT 9999 FEW016 16/11 Q1013 NOSIG

Hora: 23:57 (23:57 UTC)


TAF: em falta

Observações e previsões do tempo de mais de 4000 aeroportos (mensagens METAR e TAF).

As estações disponíveis são os pontos amarelos e vermelhos sobre o mapa.

Mova o rato sobre o mapa para ver o nome da estação.

Depois clique no ponto para visualizar as observações e previsões meteorológicas.

Para alterar o mapa : clique nos botões verdes com uma cruz preta para aumentar o zoom; no botão verde com uma pitada de zoom; ou nas setas verdes para mapas adjacentes.


METAR-TAF: